�������l�o���
Date,Time,MP-1(��Sv/h),MP-2(��Sv/h),MP-3(��Sv/h),MP-4(��Sv/h),MP-5(��Sv/h),MP-6(��Sv/h),MP-7(��Sv/h),MP-8(��Sv/h),����,����(m/s),���J
2020/03/19,00:00,0.695,0.999,0.664,1.212,0.872,0.401,0.696,0.661,��,1.7,��
2020/03/19,00:10,0.693,0.998,0.667,1.215,0.871,0.400,0.694,0.662,�쐼,2.5,��
2020/03/19,00:20,0.695,1.000,0.666,1.213,0.871,0.399,0.695,0.660,�쐼,4.4,��
2020/03/19,00:30,0.692,0.999,0.667,1.214,0.872,0.400,0.697,0.661,�쐼,6.2,��
2020/03/19,00:40,0.694,0.998,0.665,1.214,0.869,0.400,0.695,0.663,�쐼,5.8,��
2020/03/19,00:50,0.693,0.997,0.666,1.214,0.872,0.398,0.695,0.662,�쐼,5.9,��
2020/03/19,01:00,0.695,0.999,0.666,1.214,0.871,0.399,0.696,0.662,�쐼,5.7,��
2020/03/19,01:10,0.694,0.999,0.665,1.212,0.870,0.400,0.698,0.661,�쐼,5.4,��
2020/03/19,01:20,0.694,0.997,0.665,1.212,0.872,0.400,0.695,0.661,�쐼,4.8,��
2020/03/19,01:30,0.694,0.997,0.667,1.211,0.870,0.400,0.697,0.662,�쐼,4.6,��
2020/03/19,01:40,0.692,1.000,0.665,1.212,0.870,0.400,0.697,0.660,�쐼,3.9,��
2020/03/19,01:50,0.692,0.999,0.667,1.211,0.872,0.400,0.695,0.661,��,1.2,��
2020/03/19,02:00,0.695,0.998,0.666,1.213,0.872,0.399,0.697,0.661,�k��,0.6,��
2020/03/19,02:10,0.694,0.997,0.667,1.212,0.869,0.400,0.696,0.661,-,CALM,��
2020/03/19,02:20,0.695,0.998,0.666,1.213,0.872,0.399,0.697,0.661,�k,1.4,��
2020/03/19,02:30,0.694,0.998,0.665,1.214,0.871,0.400,0.695,0.663,-,CALM,��
2020/03/19,02:40,0.692,0.999,0.666,1.215,0.871,0.398,0.696,0.660,-,CALM,��
2020/03/19,02:50,0.692,0.997,0.666,1.211,0.871,0.399,0.696,0.662,�k�k��,0.8,��
2020/03/19,03:00,0.694,0.998,0.665,1.214,0.871,0.400,0.695,0.660,���k��,0.8,��
2020/03/19,03:10,0.692,0.997,0.666,1.213,0.872,0.398,0.696,0.661,�k��,0.6,��
2020/03/19,03:20,0.694,0.997,0.666,1.211,0.870,0.400,0.696,0.661,�k�k��,0.8,��
2020/03/19,03:30,0.692,0.998,0.665,1.212,0.868,0.398,0.695,0.661,-,CALM,��
2020/03/19,03:40,0.695,0.997,0.666,1.211,0.872,0.400,0.695,0.662,-,CALM,��
2020/03/19,03:50,0.692,0.997,0.666,1.214,0.871,0.398,0.695,0.662,-,CALM,��
2020/03/19,04:00,0.693,0.997,0.666,1.211,0.871,0.400,0.695,0.661,-,CALM,��
2020/03/19,04:10,0.694,0.996,0.666,1.212,0.870,0.399,0.696,0.662,��,0.9,��
2020/03/19,04:20,0.695,0.996,0.663,1.212,0.871,0.399,0.693,0.661,��쓌,1.4,��
2020/03/19,04:30,0.694,0.996,0.664,1.214,0.870,0.400,0.694,0.662,��쓌,1.4,��
2020/03/19,04:40,0.694,0.997,0.665,1.213,0.871,0.398,0.696,0.663,��쓌,1.4,��
2020/03/19,04:50,0.692,0.997,0.665,1.211,0.871,0.399,0.696,0.661,��,1.2,��
2020/03/19,05:00,0.692,0.997,0.666,1.212,0.870,0.400,0.695,0.662,��,1.9,��
2020/03/19,05:10,0.695,0.999,0.665,1.213,0.869,0.398,0.695,0.662,�쐼,2.3,��
2020/03/19,05:20,0.693,0.999,0.663,1.214,0.870,0.399,0.695,0.660,�쐼,2.5,��
2020/03/19,05:30,0.692,0.995,0.667,1.213,0.869,0.398,0.695,0.662,�쐼,1.9,��
2020/03/19,05:40,0.693,0.999,0.665,1.212,0.870,0.398,0.695,0.664,��쐼,1.8,��
2020/03/19,05:50,0.693,0.999,0.665,1.215,0.871,0.400,0.696,0.661,�쐼,2.9,��
2020/03/19,06:00,0.693,0.997,0.666,1.214,0.871,0.401,0.696,0.661,�쐼,2.6,��
2020/03/19,06:10,0.694,0.996,0.667,1.216,0.870,0.399,0.696,0.661,�쐼,2.3,��
2020/03/19,06:20,0.693,0.996,0.666,1.212,0.872,0.399,0.695,0.661,��쐼,2.6,��
2020/03/19,06:30,0.693,0.998,0.665,1.212,0.870,0.399,0.696,0.662,��쐼,2.3,��
2020/03/19,06:40,0.693,0.997,0.666,1.215,0.870,0.400,0.696,0.661,��쐼,2.0,��
2020/03/19,06:50,0.695,0.997,0.666,1.215,0.870,0.398,0.697,0.661,��,2.0,��
2020/03/19,07:00,0.695,0.995,0.664,1.213,0.871,0.400,0.697,0.662,��쐼,1.9,��
2020/03/19,07:10,0.694,0.998,0.666,1.211,0.871,0.401,0.698,0.660,��,1.7,��
2020/03/19,07:20,0.695,0.999,0.666,1.215,0.869,0.399,0.697,0.662,��,1.5,��
2020/03/19,07:30,0.694,0.998,0.665,1.214,0.870,0.401,0.696,0.662,��쓌,1.7,��
2020/03/19,07:40,0.696,0.999,0.666,1.216,0.870,0.400,0.698,0.662,��,1.5,��
2020/03/19,07:50,0.695,0.999,0.664,1.212,0.870,0.400,0.699,0.662,��,1.2,��
2020/03/19,08:00,0.694,0.998,0.666,1.216,0.872,0.400,0.698,0.663,��쓌,1.2,��
2020/03/19,08:10,0.697,0.998,0.667,1.214,0.871,0.398,0.699,0.664,��쓌,1.1,��
2020/03/19,08:20,0.695,0.998,0.668,1.213,0.872,0.398,0.699,0.664,�쓌,2.2,��
2020/03/19,08:30,0.697,0.996,0.666,1.216,0.874,0.397,0.698,0.663,�쓌,2.5,��
2020/03/19,08:40,0.695,0.997,0.667,1.213,0.871,0.397,0.697,0.663,��쓌,2.6,��
2020/03/19,08:50,0.696,0.998,0.666,1.215,0.870,0.396,0.695,0.664,�쓌,2.5,��
2020/03/19,09:00,0.695,0.996,0.665,1.214,0.870,0.397,0.696,0.666,�쓌,2.6,��
2020/03/19,09:10,0.697,0.997,0.665,1.213,0.871,0.396,0.696,0.665,�쓌,3.3,��
2020/03/19,09:20,0.696,0.998,0.666,1.215,0.871,0.398,0.698,0.662,�쓌,2.9,��
2020/03/19,09:30,0.696,0.998,0.666,1.212,0.874,0.397,0.695,0.663,�쓌,3.4,��
2020/03/19,09:40,0.696,0.999,0.666,1.213,0.871,0.398,0.697,0.662,�쓌,3.4,��
2020/03/19,09:50,0.695,0.998,0.667,1.214,0.872,0.398,0.695,0.661,�쓌,4.2,��
2020/03/19,10:00,0.695,0.999,0.667,1.216,0.873,0.398,0.697,0.658,�쓌,4.4,��
2020/03/19,10:10,0.695,0.998,0.667,1.217,0.870,0.396,0.696,0.660,��쓌,4.4,��
2020/03/19,10:20,0.695,0.999,0.666,1.218,0.871,0.398,0.697,0.661,��쓌,5.3,��
2020/03/19,10:30,0.694,1.000,0.667,1.216,0.872,0.398,0.697,0.660,��쓌,7.5,��
2020/03/19,10:40,0.695,1.003,0.664,1.215,0.872,0.398,0.698,0.661,��쓌,6.8,��
2020/03/19,10:50,0.695,1.001,0.665,1.215,0.873,0.399,0.698,0.660,��쓌,6.7,��
2020/03/19,11:00,0.695,1.004,0.666,1.215,0.872,0.399,0.697,0.660,��쓌,7.8,��
2020/03/19,11:10,0.695,1.003,0.664,1.217,0.871,0.400,0.697,0.661,��쓌,7.0,��
2020/03/19,11:20,0.695,1.004,0.665,1.215,0.872,0.398,0.697,0.661,��쓌,7.5,��
2020/03/19,11:30,0.696,1.006,0.664,1.217,0.873,0.400,0.696,0.659,��쓌,8.5,��
2020/03/19,11:40,0.697,1.005,0.667,1.221,0.874,0.399,0.698,0.660,��쓌,8.4,��
2020/03/19,11:50,0.697,1.005,0.665,1.217,0.873,0.400,0.697,0.661,��쓌,8.8,��
2020/03/19,12:00,0.697,1.004,0.666,1.217,0.875,0.399,0.698,0.661,��쓌,7.4,��
2020/03/19,12:10,0.697,1.003,0.667,1.220,0.874,0.400,0.699,0.661,��쓌,8.2,��
2020/03/19,12:20,0.697,1.004,0.664,1.217,0.874,0.402,0.699,0.659,��,8.5,��
2020/03/19,12:30,0.699,1.007,0.666,1.218,0.872,0.402,0.699,0.661,��쓌,8.4,��
2020/03/19,12:40,0.697,1.005,0.667,1.220,0.872,0.402,0.700,0.663,��,9.1,��
2020/03/19,12:50,0.698,1.004,0.666,1.219,0.876,0.402,0.700,0.661,��,9.2,��
2020/03/19,13:00,0.699,1.006,0.667,1.220,0.873,0.403,0.698,0.661,��쓌,8.1,��
2020/03/19,13:10,0.698,1.006,0.666,1.218,0.875,0.402,0.700,0.661,��쓌,11.4,��
2020/03/19,13:20,0.698,1.006,0.665,1.218,0.877,0.403,0.698,0.662,��,12.7,��
2020/03/19,13:30,0.698,1.006,0.664,1.219,0.875,0.401,0.699,0.659,��쓌,10.3,��
2020/03/19,13:40,0.699,1.006,0.667,1.218,0.876,0.402,0.698,0.663,��,7.7,��
2020/03/19,13:50,0.699,1.005,0.665,1.219,0.875,0.403,0.701,0.661,��,10.3,��
2020/03/19,14:00,0.700,1.007,0.664,1.220,0.876,0.403,0.700,0.661,��,10.3,��
2020/03/19,14:10,0.698,1.007,0.666,1.218,0.877,0.401,0.701,0.662,��,12.8,��
2020/03/19,14:20,0.700,1.005,0.664,1.221,0.876,0.401,0.699,0.661,��쓌,11.6,��
2020/03/19,14:30,0.698,1.006,0.667,1.218,0.876,0.403,0.700,0.662,��,11.6,��
2020/03/19,14:40,0.698,1.006,0.664,1.217,0.876,0.403,0.697,0.662,��,8.9,��
2020/03/19,14:50,0.698,1.008,0.666,1.220,0.877,0.404,0.700,0.660,��,8.8,��
2020/03/19,15:00,0.700,1.008,0.664,1.220,0.879,0.402,0.698,0.662,��,11.0,��
2020/03/19,15:10,0.699,1.008,0.665,1.219,0.878,0.404,0.699,0.661,��쓌,12.7,��
2020/03/19,15:20,0.698,1.009,0.668,1.219,0.875,0.401,0.698,0.662,��쓌,11.7,��
2020/03/19,15:30,0.699,1.006,0.667,1.221,0.874,0.404,0.701,0.660,��,10.3,��
2020/03/19,15:40,0.700,1.009,0.666,1.218,0.875,0.404,0.699,0.662,��,8.6,��
2020/03/19,15:50,0.699,1.009,0.668,1.217,0.878,0.404,0.700,0.662,��,9.1,��
2020/03/19,16:00,0.699,1.006,0.669,1.218,0.875,0.406,0.699,0.662,��,9.1,��
2020/03/19,16:10,0.700,1.008,0.669,1.219,0.876,0.405,0.698,0.661,��,8.8,��
2020/03/19,16:20,0.698,1.008,0.669,1.220,0.877,0.406,0.701,0.662,��,9.7,��
2020/03/19,16:30,0.699,1.008,0.669,1.218,0.875,0.405,0.699,0.662,��,8.7,��
2020/03/19,16:40,0.701,1.009,0.667,1.220,0.879,0.405,0.698,0.663,��,10.3,��
2020/03/19,16:50,0.700,1.009,0.668,1.222,0.875,0.405,0.699,0.663,��,10.2,��
2020/03/19,17:00,0.698,1.011,0.670,1.220,0.878,0.406,0.700,0.663,��,9.9,��
2020/03/19,17:10,0.701,1.010,0.671,1.219,0.879,0.406,0.699,0.664,��,9.0,��
2020/03/19,17:20,0.698,1.006,0.670,1.223,0.878,0.406,0.700,0.664,��,8.0,��
2020/03/19,17:30,0.700,1.011,0.668,1.218,0.877,0.405,0.700,0.665,��,8.1,��
2020/03/19,17:40,0.701,1.011,0.669,1.221,0.877,0.406,0.700,0.666,��,7.8,��
2020/03/19,17:50,0.702,1.010,0.672,1.222,0.875,0.405,0.701,0.666,��,8.7,��
2020/03/19,18:00,0.702,1.012,0.671,1.220,0.877,0.406,0.700,0.664,��,6.6,��
2020/03/19,18:10,0.702,1.011,0.671,1.220,0.877,0.405,0.702,0.664,��,5.9,��
2020/03/19,18:20,0.701,1.010,0.670,1.220,0.878,0.405,0.700,0.665,��쐼,7.7,��
2020/03/19,18:30,0.700,1.009,0.670,1.220,0.879,0.405,0.701,0.665,��,9.2,��
2020/03/19,18:40,0.701,1.010,0.672,1.218,0.880,0.406,0.702,0.664,��쐼,9.4,��
2020/03/19,18:50,0.700,1.009,0.671,1.218,0.880,0.406,0.701,0.665,��쐼,10.0,��
2020/03/19,19:00,0.703,1.009,0.671,1.218,0.880,0.406,0.704,0.665,��쐼,9.1,��
2020/03/19,19:10,0.702,1.008,0.672,1.223,0.878,0.406,0.703,0.666,��,9.5,��
2020/03/19,19:20,0.703,1.009,0.672,1.221,0.881,0.406,0.701,0.665,��쐼,8.9,��
2020/03/19,19:30,0.702,1.008,0.672,1.221,0.881,0.406,0.703,0.664,��쐼,8.2,��
2020/03/19,19:40,0.703,1.008,0.674,1.222,0.878,0.406,0.702,0.665,��,8.7,��
2020/03/19,19:50,0.703,1.009,0.673,1.219,0.877,0.405,0.701,0.665,��쐼,10.5,��
2020/03/19,20:00,0.702,1.009,0.671,1.219,0.879,0.404,0.701,0.664,��,11.6,��
2020/03/19,20:10,0.702,1.007,0.671,1.219,0.879,0.405,0.702,0.664,��쐼,11.6,��
2020/03/19,20:20,0.703,1.009,0.673,1.218,0.879,0.405,0.701,0.664,��,11.7,��
2020/03/19,20:30,0.703,1.007,0.671,1.218,0.880,0.405,0.701,0.663,��,11.3,��
2020/03/19,20:40,0.702,1.008,0.673,1.220,0.878,0.407,0.701,0.665,��,10.6,��
2020/03/19,20:50,0.702,1.009,0.671,1.219,0.881,0.405,0.701,0.665,��,9.9,��
2020/03/19,21:00,0.702,1.005,0.673,1.222,0.881,0.405,0.702,0.665,��,9.5,��
2020/03/19,21:10,0.702,1.009,0.672,1.223,0.879,0.404,0.703,0.664,��,11.0,��
2020/03/19,21:20,0.700,1.006,0.671,1.220,0.879,0.406,0.705,0.665,��,10.3,��
2020/03/19,21:30,0.703,1.006,0.673,1.220,0.879,0.404,0.704,0.665,��,10.5,��
2020/03/19,21:40,0.702,1.007,0.671,1.220,0.879,0.405,0.703,0.664,��,10.2,��
2020/03/19,21:50,0.699,1.006,0.672,1.220,0.880,0.405,0.703,0.666,��,11.8,��
2020/03/19,22:00,0.702,1.008,0.670,1.221,0.879,0.406,0.703,0.666,��,11.3,��
2020/03/19,22:10,0.702,1.006,0.672,1.220,0.880,0.406,0.703,0.665,��,11.1,��
2020/03/19,22:20,0.703,1.006,0.670,1.218,0.878,0.406,0.702,0.665,��,8.9,��
2020/03/19,22:30,0.703,1.007,0.670,1.220,0.877,0.404,0.702,0.664,��,8.2,��
2020/03/19,22:40,0.702,1.007,0.669,1.219,0.878,0.406,0.702,0.666,��,9.2,��
2020/03/19,22:50,0.702,1.006,0.670,1.222,0.879,0.406,0.703,0.665,��,10.3,��
2020/03/19,23:00,0.703,1.008,0.674,1.219,0.878,0.403,0.701,0.666,��,9.3,��
2020/03/19,23:10,0.702,1.007,0.674,1.217,0.879,0.405,0.702,0.665,��,8.6,��
2020/03/19,23:20,0.702,1.010,0.672,1.220,0.879,0.406,0.703,0.663,��쓌,10.0,��
2020/03/19,23:30,0.703,1.006,0.673,1.220,0.878,0.405,0.701,0.667,��,9.2,��
2020/03/19,23:40,0.704,1.008,0.672,1.219,0.879,0.406,0.703,0.665,��,9.2,�L
2020/03/19,23:50,0.704,1.007,0.672,1.221,0.880,0.406,0.703,0.665,��,10.0,��
